Tiempo cada hora Dabrowa

Hoy, 4 Agosto, Miércoles

Tiempo Temperatura Precipitaciones Viento Presión Humedad
00:00 +14°C° 0 mm 1 mps 748 mmHg 86%
01:00 +13°C° 0 mm 1 mps 748 mmHg 88%
02:00 +13°C° 0 mm 1 mps 748 mmHg 88%
03:00 +13°C° 0 mm 1 mps 748 mmHg 88%
04:00 +13°C° 0 mm 1 mps 748 mmHg 88%
05:00 +14°C° 0 mm 1 mps 748 mmHg 82%
06:00 +15°C° 0 mm 1 mps 748 mmHg 76%
07:00 +16°C° 0 mm 1 mps 748 mmHg 71%
08:00 +19°C° 0 mm 1 mps 749 mmHg 65%
09:00 +20°C° 0 mm 1 mps 749 mmHg 60%
10:00 +21°C° 0 mm 1 mps 749 mmHg 54%
11:00 +21°C° 0.2 mm 1 mps 749 mmHg 56%
12:00 +20°C° 0.2 mm 2 mps 748 mmHg 57%
13:00 +20°C° 0.2 mm 2 mps 748 mmHg 59%
14:00 +20°C° 0 mm 2 mps 748 mmHg 61%
15:00 +19°C° 0 mm 2 mps 748 mmHg 64%
16:00 +19°C° 0 mm 2 mps 748 mmHg 67%
17:00 +18°C° 0 mm 2 mps 748 mmHg 69%
18:00 +18°C° 0 mm 2 mps 748 mmHg 72%
19:00 +18°C° 0 mm 1 mps 748 mmHg 75%
20:00 +16°C° 0 mm 1 mps 748 mmHg 78%
21:00 +15°C° 0 mm 1 mps 748 mmHg 82%
22:00 +14°C° 0 mm 1 mps 749 mmHg 85%
23:00 +14°C° 0 mm 1 mps 749 mmHg 86%

Mañana, 5 Agosto, Jueves

Tiempo Temperatura Precipitaciones Viento Presión Humedad
00:00 +14°C° 0 mm 1 mps 748 mmHg 87%
01:00 +13°C° 0 mm 1 mps 748 mmHg 87%
02:00 +13°C° 0 mm 1 mps 748 mmHg 88%
03:00 +13°C° 0 mm 1 mps 748 mmHg 89%
04:00 +13°C° 0 mm 2 mps 748 mmHg 90%
05:00 +14°C° 0 mm 2 mps 748 mmHg 83%
06:00 +16°C° 0 mm 2 mps 748 mmHg 76%
07:00 +18°C° 0 mm 2 mps 748 mmHg 69%
08:00 +19°C° 0 mm 2 mps 748 mmHg 62%
09:00 +20°C° 0 mm 3 mps 748 mmHg 55%
10:00 +22°C° 0 mm 3 mps 748 mmHg 48%
11:00 +24°C° 0 mm 3 mps 747 mmHg 45%
12:00 +24°C° 0 mm 3 mps 747 mmHg 42%
13:00 +25°C° 0 mm 4 mps 747 mmHg 39%
14:00 +23°C° 0 mm 4 mps 746 mmHg 44%
15:00 +22°C° 0 mm 4 mps 746 mmHg 48%
16:00 +22°C° 0 mm 4 mps 746 mmHg 52%
17:00 +21°C° 0 mm 4 mps 746 mmHg 58%
18:00 +20°C° 0 mm 4 mps 746 mmHg 64%
19:00 +19°C° 0 mm 3 mps 746 mmHg 70%
20:00 +18°C° 0 mm 3 mps 745 mmHg 72%
21:00 +18°C° 0 mm 3 mps 745 mmHg 74%
22:00 +17°C° 0 mm 3 mps 745 mmHg 77%
23:00 +16°C° 0 mm 3 mps 745 mmHg 78%

Pasado mañana, 6 Agosto, Viernes

Tiempo Temperatura Precipitaciones Viento Presión Humedad
00:00 +16°C° 0 mm 2 mps 745 mmHg 79%
01:00 +15°C° 0 mm 2 mps 745 mmHg 81%
02:00 +15°C° 0 mm 2 mps 744 mmHg 83%
03:00 +15°C° 0 mm 2 mps 744 mmHg 85%
04:00 +15°C° 0 mm 2 mps 744 mmHg 86%
05:00 +16°C° 0 mm 2 mps 744 mmHg 82%
06:00 +17°C° 0 mm 3 mps 744 mmHg 78%
07:00 +17°C° 0 mm 3 mps 744 mmHg 74%
08:00 +18°C° 0 mm 3 mps 744 mmHg 68%
09:00 +19°C° 0 mm 4 mps 744 mmHg 62%
10:00 +21°C° 0 mm 4 mps 744 mmHg 56%
11:00 +21°C° 0 mm 4 mps 744 mmHg 53%
12:00 +21°C° 0 mm 4 mps 744 mmHg 51%
13:00 +21°C° 0 mm 3 mps 744 mmHg 48%
14:00 +21°C° 0 mm 3 mps 744 mmHg 50%
15:00 +21°C° 0 mm 3 mps 744 mmHg 52%
16:00 +21°C° 0 mm 3 mps 744 mmHg 53%
17:00 +20°C° 0 mm 3 mps 744 mmHg 57%
18:00 +19°C° 0 mm 2 mps 744 mmHg 62%
19:00 +18°C° 0 mm 2 mps 744 mmHg 66%
20:00 +19°C° 0 mm 1 mps 744 mmHg 68%
21:00 +18°C° 0 mm 1 mps 744 mmHg 69%
22:00 +18°C° 0 mm 1 mps 744 mmHg 71%
23:00 +16°C° 0 mm 1 mps 744 mmHg 72%

7 Agosto, Sábado

Tiempo Temperatura Precipitaciones Viento Presión Humedad
00:00 +16°C° 0 mm 2 mps 744 mmHg 73%
01:00 +16°C° 0 mm 2 mps 744 mmHg 75%
02:00 +15°C° 0 mm 2 mps 744 mmHg 77%
03:00 +15°C° 0 mm 2 mps 744 mmHg 79%
04:00 +14°C° 0 mm 2 mps 744 mmHg 81%
05:00 +15°C° 0 mm 2 mps 744 mmHg 73%
06:00 +17°C° 0 mm 2 mps 744 mmHg 66%
07:00 +19°C° 0 mm 2 mps 744 mmHg 58%
08:00 +20°C° 0 mm 2 mps 744 mmHg 52%
09:00 +23°C° 0 mm 2 mps 744 mmHg 45%
10:00 +25°C° 0 mm 2 mps 744 mmHg 39%
11:00 +26°C° 0 mm 3 mps 744 mmHg 37%
12:00 +26°C° 0 mm 3 mps 744 mmHg 36%
13:00 +27°C° 0 mm 4 mps 744 mmHg 35%
14:00 +26°C° 0 mm 4 mps 744 mmHg 41%
15:00 +25°C° 0 mm 3 mps 744 mmHg 46%
16:00 +24°C° 0 mm 3 mps 744 mmHg 52%
17:00 +24°C° 0 mm 3 mps 744 mmHg 56%
18:00 +22°C° 0 mm 3 mps 744 mmHg 59%
19:00 +23°C° 0 mm 2 mps 744 mmHg 62%
20:00 +21°C° 0 mm 2 mps 744 mmHg 63%
21:00 +20°C° 0 mm 2 mps 744 mmHg 65%
22:00 +19°C° 0 mm 2 mps 744 mmHg 66%
23:00 +19°C° 0 mm 2 mps 744 mmHg 65%

8 Agosto, Domingo

Tiempo Temperatura Precipitaciones Viento Presión Humedad
00:00 +19°C° 0 mm 2 mps 744 mmHg 64%
01:00 +19°C° 0 mm 2 mps 744 mmHg 63%
02:00 +18°C° 1 mm 2 mps 744 mmHg 73%
03:00 +18°C° 1 mm 1 mps 744 mmHg 84%
04:00 +16°C° 1 mm 1 mps 744 mmHg 94%
05:00 +16°C° 1.4 mm 2 mps 744 mmHg 95%
06:00 +17°C° 1.4 mm 2 mps 744 mmHg 95%
07:00 +17°C° 1.4 mm 2 mps 744 mmHg 96%
08:00 +18°C° 0.1 mm 3 mps 745 mmHg 89%
09:00 +20°C° 0.1 mm 4 mps 745 mmHg 82%
10:00 +21°C° 0.1 mm 5 mps 745 mmHg 75%
11:00 +22°C° 0 mm 5 mps 746 mmHg 65%
12:00 +25°C° 0 mm 5 mps 746 mmHg 55%
13:00 +26°C° 0 mm 4 mps 746 mmHg 45%
14:00 +27°C° 0 mm 4 mps 747 mmHg 42%
15:00 +27°C° 0 mm 4 mps 747 mmHg 39%
16:00 +27°C° 0 mm 4 mps 747 mmHg 36%
17:00 +26°C° 0 mm 4 mps 748 mmHg 41%
18:00 +24°C° 0 mm 3 mps 748 mmHg 47%
19:00 +21°C° 0 mm 2 mps 749 mmHg 52%
20:00 +20°C° 0 mm 2 mps 749 mmHg 56%
21:00 +20°C° 0 mm 1 mps 749 mmHg 60%
22:00 +19°C° 0 mm 1 mps 750 mmHg 65%
23:00 +19°C° 0 mm 1 mps 750 mmHg 67%

9 Agosto, Lunes

Tiempo Temperatura Precipitaciones Viento Presión Humedad
00:00 +18°C° 0 mm 1 mps 750 mmHg 69%
01:00 +18°C° 0 mm 1 mps 750 mmHg 71%
02:00 +16°C° 0 mm 2 mps 750 mmHg 72%
03:00 +16°C° 0 mm 2 mps 750 mmHg 72%
04:00 +16°C° 0 mm 2 mps 751 mmHg 73%
05:00 +17°C° 0 mm 2 mps 751 mmHg 70%
06:00 +18°C° 0 mm 2 mps 751 mmHg 66%
07:00 +19°C° 0 mm 2 mps 751 mmHg 63%
08:00 +21°C° 0 mm 3 mps 751 mmHg 57%
09:00 +22°C° 0 mm 3 mps 752 mmHg 52%
10:00 +24°C° 0 mm 3 mps 752 mmHg 46%
11:00 +25°C° 0 mm 3 mps 752 mmHg 42%
12:00 +26°C° 0 mm 3 mps 752 mmHg 38%
13:00 +27°C° 0 mm 3 mps 751 mmHg 34%
14:00 +27°C° 0 mm 3 mps 751 mmHg 35%
15:00 +26°C° 0 mm 3 mps 751 mmHg 35%
16:00 +26°C° 0 mm 3 mps 751 mmHg 36%
17:00 +24°C° 0 mm 2 mps 751 mmHg 43%
18:00 +23°C° 0 mm 2 mps 751 mmHg 51%
19:00 +20°C° 0 mm 2 mps 751 mmHg 58%
20:00 +19°C° 0 mm 2 mps 751 mmHg 64%
21:00 +20°C° 0 mm 1 mps 751 mmHg 69%
22:00 +19°C° 0 mm 1 mps 751 mmHg 75%
23:00 +19°C° 0 mm 1 mps 751 mmHg 74%
Mostrar más

Necesitamos Su Consentimiento

Meteoprog y nuestros Proveedores de Servicios pueden almacenar y acceder a sus datos personales como cookies, identificadores de dispositivo u otras tecnologías similares de su dispositivo y procesar dichos datos para personalizar contenido y anuncios, además de ofrecer funciones de redes sociales y analizar el tráfico.

  • Almacenar y/o acceder a información en su dispositivo

    Se puede almacenar o acceder a cookies, identificadores de dispositivo u otra información de su dispositivo para los fines anteriormente indicados.

  • Anuncios y contenido personalizados, medición de anuncios y contenido, percepciones del público, y desarrollo de productos

    Los anuncios y el contenido pueden personalizarse en base a su perfil. Se pueden añadir más datos para personalizar mejor los anuncios y contenidos. Se puede medir el rendimiento de los anuncios y contenidos. Se puede obtener la percepción sobre el público que ha visto los anuncios y contenidos. Dichos datos pueden usarse para desarrollar o mejorar la experiencia del usuario, sistemas y software.

Al hacer clic en ‘Estoy De Acuerdo’ usted permitirá el uso de las cookies, identificadores de dispositivo, balizas web u otras tecnologías similares indicadas. Su configuración puede cambiarse desde el navegador de su dispositivo.

Para ciertos fines, los intereses legítimos pueden ser considerados por encima del consentimiento. Puede leer más sobre ello en nuestra Política de Privacidad y Cookies.